Change the Weather History Date:

Sunday, August 24, 2014

  Actual Average Record
Temperature  
Mean Temperature 78 °F 74 °F  
Max Temperature 88 °F 85 °F 99 °F (1959)
Min Temperature 68 °F 64 °F 48 °F (1952)
Degree Days  
Heating Degree Days 0 0  
Month to date heating degree days 0 0  
Since 1 June heating degree days 3 12  
Since 1 July heating degree days 3 0  
Cooling Degree Days 13 9  
Month to date cooling degree days 178 248  
Year to date cooling degree days 773 918  
Since 1 June cooling degree days 659 805  
Growing Degree Days 28 (Base 50)    
Moisture  
Dew Point 70 °F    
Average Humidity 76    
Maximum Humidity 100    
Minimum Humidity 51    
Precipitation  
Precipitation 0.00 in 0.11 in 3.01 in (1999)
Month to date precipitation 5.91 2.97  
Year to date precipitation 33.97 29.48  
Snow  
Snow 0.00 in - - ()
Month to date snowfall 0.0  
Since 1 September snowfall 36.8  
Snow Depth 0.00 in    
Sea Level Pressure  
Sea Level Pressure 29.99 in    
Wind  
Wind Speed 4 mph (ENE)    
Max Wind Speed 10 mph    
Max Gust Speed 15 mph    
Visibility 6 miles    
Events Fog    
T = Trace of Precipitation, MM = Missing Value Source: NWS Daily Summary

Daily Weather History Graph

Daily Weather History Graph

Search for Another Location

Airport or City:

Trip Planner

Search our weather history database for the weather conditions in past years. The results will help you decide how hot, cold, wet, or windy it might be!

Date:

Astronomy

Aug. 24, 2014 Rise Set
Actual Time 6:52 AM EDT 8:11 PM EDT
Civil Twilight 6:25 AM EDT 8:39 PM EDT
Nautical Twilight 5:52 AM EDT 9:12 PM EDT
Astronomical Twilight 5:17 AM EDT 9:46 PM EDT
Moon 6:02 AM EDT (8/24) 7:29 PM EDT (8/24)
Length of Visible Light 14h 14m
Length of Day
13h 19m
Waning Crescent, 1% of the Moon is Illuminated
Aug 24
Waning Crescent
Aug 25
New
Sep 2
First Quarter
Sep 8
Full
Sep 15
Last Quarter

Hourly Weather History & Observations

Time (EDT) Temp. Heat Index Dew Point Humidity Pressure Visibility Wind Dir Wind Speed Gust Speed Precip Events Conditions
12:51 AM 71.1 °F - 71.1 °F 100% 29.97 in 6.0 mi Calm Calm - N/A   Clear
1:51 AM 71.1 °F - 71.1 °F 100% 29.96 in 2.0 mi Calm Calm - N/A   Clear
2:00 AM 71.1 °F - 71.1 °F 100% 29.98 in 0.8 mi Calm Calm - N/A   Mist
2:51 AM 70.0 °F - 70.0 °F 100% 29.95 in 2.0 mi NE 3.5 mph - N/A   Partly Cloudy
3:51 AM 70.0 °F - 70.0 °F 100% 29.95 in 2.0 mi NE 4.6 mph - N/A   Clear
3:58 AM 70.0 °F - 70.0 °F 100% 29.97 in 7.0 mi ENE 3.5 mph - N/A   Clear
4:05 AM 70.0 °F - 70.0 °F 100% 29.97 in 2.0 mi Calm Calm - N/A   Clear
4:51 AM 69.8 °F - 69.8 °F 100% 29.97 in 2.0 mi NE 4.6 mph - N/A   Clear
4:58 AM 70.0 °F - 69.1 °F 97% 29.97 in 6.0 mi NE 3.5 mph - N/A   Clear
5:51 AM 70.0 °F - 69.1 °F 97% 29.95 in 9.0 mi ENE 3.5 mph - N/A   Clear
6:51 AM 69.1 °F - 68.0 °F 96% 29.97 in 2.0 mi NE 4.6 mph - N/A   Clear
7:05 AM 68.0 °F - 68.0 °F 100% 30.00 in 2.0 mi NNE 3.5 mph - N/A   Scattered Clouds
7:15 AM 68.0 °F - 68.0 °F 100% 30.00 in 2.0 mi Calm Calm - N/A   Partly Cloudy
7:49 AM 69.8 °F - 69.8 °F 100% 30.02 in 0.5 mi NNE 3.5 mph - N/A Fog Fog
7:51 AM 69.1 °F - 69.1 °F 100% 30.00 in 0.5 mi NNE 3.5 mph - N/A Fog Fog
8:51 AM 70.0 °F - 70.0 °F 100% 30.01 in 0.5 mi ENE 3.5 mph - N/A Fog Fog
9:51 AM 71.1 °F - 71.1 °F 100% 30.02 in 2.0 mi East 3.5 mph - N/A   Overcast
10:51 AM 75.2 °F - 71.6 °F 89% 30.05 in 10.0 mi NE 3.5 mph - N/A   Mostly Cloudy
11:04 AM 75.9 °F - 71.1 °F 85% 30.05 in 10.0 mi Variable 3.5 mph - N/A   Mostly Cloudy
11:51 AM 81.0 °F 85.8 °F 73.0 °F 77% 30.03 in 10.0 mi Calm Calm - N/A   Mostly Cloudy
12:00 PM 80.1 °F 83.8 °F 72.0 °F 76% 30.05 in 10.0 mi WNW 3.5 mph - N/A   Mostly Cloudy
12:51 PM 81.0 °F 84.9 °F 71.1 °F 72% 30.03 in 10.0 mi Calm Calm - N/A   Mostly Cloudy
1:01 PM 82.0 °F 86.3 °F 71.1 °F 69% 30.05 in 10.0 mi Calm Calm - N/A   Partly Cloudy
1:51 PM 84.0 °F 87.8 °F 69.1 °F 61% 30.01 in 10.0 mi Variable 3.5 mph - N/A   Clear
2:51 PM 84.9 °F 88.2 °F 68.0 °F 57% 29.99 in 10.0 mi Variable 4.6 mph - N/A   Partly Cloudy
3:51 PM 86.0 °F 88.8 °F 66.9 °F 53% 29.98 in 10.0 mi Calm Calm - N/A   Scattered Clouds
4:51 PM 87.8 °F 91.4 °F 68.0 °F 52% 29.99 in 10.0 mi Variable 5.8 mph - N/A   Clear
5:51 PM 86.0 °F 89.4 °F 68.0 °F 55% 29.96 in 10.0 mi NE 5.8 mph - N/A   Scattered Clouds
6:51 PM 82.0 °F 85.5 °F 69.1 °F 65% 29.97 in 10.0 mi ENE 8.1 mph - N/A   Scattered Clouds
7:51 PM 79.0 °F - 70.0 °F 74% 29.98 in 10.0 mi ESE 3.5 mph - N/A   Partly Cloudy
8:51 PM 77.0 °F - 70.0 °F 79% 29.99 in 10.0 mi East 3.5 mph - N/A   Clear
9:51 PM 73.9 °F - 72.0 °F 93% 30.01 in 10.0 mi East 3.5 mph - N/A   Clear
10:51 PM 73.4 °F - 69.8 °F 88% 30.05 in 10.0 mi SSE 5.8 mph - N/A   Clear
11:51 PM 73.0 °F - 68.0 °F 84% 30.04 in 10.0 mi SSE 5.8 mph - N/A   Clear